Location: Aulnoy
(48.8410°N, 3.0967°E)
Time: 12:54:21
(UTC+00:00)

Spot 1 - Pass Details

Date: 09 February 2023
Orbit: 575 x 773 km, 98.8° (Epoch: 21 March)

Event Time Altitude Azimuth Distance (km) Brightness Sun altitude
Exits shadow 19:00:10 38° 32° (NNE) 890 4.6 -20.5°
Maximum altitude 19:01:36 69° 103° (ESE) 622 3.8 -20.7°
Drops below altitude 10° 19:05:41 10° 188° (S) 1,901 6.6 -21.4°
Sets 19:07:51 0° 190° (S) 2,813 7.5 -21.7°
